CZ-6A DEB, 60649

Orbit data source: Space-Track

CZ-6A DEB, 60649 is space debris in LEO originally from a launch on Tue, 06 Aug 2024 UTC launched from the Taiyaun Space Center, China (TSC). Debris objects in space refer to the collection of defunct objects orbiting the Earth. Examples of debris include non-operational satellites, rocket bodies, and fragments generated from explosions, collisions, or faulty payload assembly.

Loading next visibility...
Identifier
60649, 2024-140BA
Orbit
LEO
Country
Flag of CNCN / PRC
Related business
Manufacturer
SAST
Mission
Spacecraft
Bus & Motor
Unknown
Mass
Unknown
Launch date (UTC)
2024-08-06 (2 years ago)
Launch vehicle
Unknown
Launch site
Taiyaun Space Center, China (TSC)
Object type
Payload
Rocket body
Debris
Shape & HBR
Unknown shape, 0.7 m
Radar Cross Section
Medium (>0.1 m² and <1 m²)

Expand to show TLE details & history
Last TLE update: 15 hours ago

TLE from 15 hours ago
0 CZ-6A DEB
1 60649U 24140BA  26129.90215017  .00000395  00000-0  83325-4 0  9993
2 60649  88.9857 274.0006 0112969  32.8811 327.9358 14.53297804 92834
Epoch: 2026-05-09T21:39Z
TLE epoch observation values (Epoch: 2026-05-09T21:39:05.774Z)
Latitude
-0.00011°
Longitude
81.51362°
Altitude
650.337 km
Speed
7.568 km/s
True Right ascension
18h 16m 00s
True Declination
0° 00' 00"
Sunlit
Object was in full shadow at epoch
Visualization orbit readout
Latitude
Unknown
Longitude
Unknown
Altitude
Unknown
Speed
Unknown
Apparent Right ascension
Unknown
Apparent Declination
Unknown
Sunlit
N/A
Visualization observer readout
Local Sidereal Time
20:41:38
Azimuth
Unknown
Elevation
Unknown
Doppler factor
Unknown
Orbital elements
Apogee altitude
791.895 km
Perigee altitude
631.707 km
Semi-major axis
7,089.938 km
Eccentricity
0.0113
Inclination
88.9857°
RAAN
274.0006°
Arg. of periapsis
32.8811°
True anomaly
327.24027°
Mean anomaly
327.9358°
Eccentric anomaly
327.58887°
Mean motion
3.63563 °/min
Orbital period
99.02 mins
BSTAR
0.000083325
Loading maneuver chart data...
Computing Atmospheric mass density...
Loading historical data...
Loading historical data...
Loading historical data...
Loading historical data...
Loading historical data...
Loading historical data...
Loading historical data...

Documentation

Showing up to 5 results
|